View from above orbital plane
|
View from above satellite
|
Ground track
|
The orbit data is extracted from the following two-line orbital elements,
1 23318U 94066B 22228.92076122 .00000207 00000-0 24696-4 0 9997
2 23318 82.5396 218.6908 0023662 176.1272 184.0129 14.79047715501232
Epoch (UTC): | 16 August 2022 22:05:53 |
Eccentricity: | 0.0023662 |
inclination: | 82.5396° |
perigee height: | 616 km |
apogee height: | 649 km |
right ascension of ascending node: | 218.6908° |
argument of perigee: | 176.1272° |
revolutions per day: | 14.79047715 |
mean anomaly at epoch: | 184.0129° |
orbit number at epoch: | 50123 |
The dashed part of the orbit path shows where the satellite is in the earth's shadow,
|
|